Weather in Perast

Montenegro     42°29′11″N   18°42′00″E
temp.,
°C
wind,
m/s
gust,
m/s
humid.,
%
clouds,
%
prec.,
mm/h
press.,
hPa
HPBL,
m
18 may, tue
tue1823:00+11n229062 1.1 101122
02:00+9nnw11813 1.2 101111
05:00+8nne22830 0.0 101218
08:00+13n22680 0.0 1013199
11:00+17sw23452 0.0 10141665
14:00+18sw33485 0.0 10141668
17:00+16sw335710 0.1 1014780
20:00+11ne11785 0.1 101510
19 may, wed
wed1923:00+9ne218137 0.0 101615
02:00+9ne1180100 0.0 101611
05:00+8ne22765 0.0 101424
08:00+14se2456100 0.0 1013310
11:00+16ssw465033 0.0 10131323
14:00+16ssw445685 0.0 10121197
17:00+15ssw346589 0.0 1012999
20:00+10sw229862 0.1 101324
20 may, thu
thu2023:00+9nne0198100 0.2 101322
02:00+9w119889 0.9 101330
05:00+8sw119999 0.3 101255
08:00+10ssw108758 0.4 1013250
11:00+14nnw127083 0.9 10131039
14:00+14nnw246328 3.2 10121253
17:00+14n356469 1.4 1013796
20:00+9nne47701 1.6 1015174
21 may, fri
fri2123:00+8n4866100 0.0 1018328
02:00+7nne3673100 0.0 1018186
05:00+6nne36858 0.0 1019168
08:00+11nne58571 0.0 10181101
11:00+16n36422 0.0 10181690
14:00+18nne36373 0.0 10171982
17:00+18w14425 0.0 10171891
20:00+11e01775 0.0 101811
22 may, sat
sat2223:00+10nne32715 0.0 101833
02:00+9ne32720 0.0 101828
05:00+8nne227479 0.0 101819
08:00+14se1165100 0.0 1017308
11:00+17ssw215193 0.0 1017996
14:00+18ssw32501 0.0 10161089
17:00+17sw22539 0.0 1016689
20:00+11ene227784 0.0 101715